Location: Oberkirch
(48.5323°N, 8.0787°E)
Time: 16:45:15
(UTC+00:00)

Tiros 1 despin weight - Pass Details

Date: 14 February 2026
Orbit: 556 x 593 km, 48.2° (Epoch: 8 March)

Event Time Altitude Azimuth Distance (km) Brightness Sun altitude
Rises 18:37:18 0° 269° (W) 2,732 ? -18.7°
Reaches altitude 10° 18:39:33 10° 269° (W) 1,838 ? -19.1°
Maximum altitude 18:43:45 87° 182° (S) 563 ? -19.8°
Enters shadow 18:44:36 56° 95° (E) 665 ? -19.9°
